Terug naar catalogus

WESTAR 2

ActiefCommunicatieGEO
NORAD 7466·PAYLOAD·🇺🇸 United States

Gelanceerd Oct 10, 1974 vanaf Cape Canaveral Space Force Station

Loading…

TLE

VersSource: Space-Track

Epoch: Sep 14, 2026, 03:49 UTC

1 07466U 74075A   26257.15946380  .00000082  00000-0  00000-0 0  9994
2 07466   7.0654 299.1009 0004753 236.8708 295.0619  0.99845562138541

Volg WESTAR 2 in realtime met AllMySat

Download on the App Store